Location: Las Vegas
(36.1750°N, 115.1360°W)
Time: 03:23:31
(UTC-07:00)

Amateur Radio Satellites - All Passes

Search period start: 05 September 2015 02:53
Search period end: 06 September 2015 02:53
Location: Las Vegas, 36.1750°N, 115.1360°W

Satellite Date Start Highest point End Downlink Frequencies (MHz)
Time Altitude Azimuth
Cosmos 2499 05 Sep 03:05:02 03:12:33 38° 87° (E) 03:20:33 435.465 / 435.565
STARS 05 Sep 03:11:25 03:15:46 63° 75° (ENE) 03:20:11 437.465
GONETS M04 05 Sep 03:36:18 03:44:21 40° 286° (WNW) 03:52:21
VERMONT LUNAR 05 Sep 03:40:40 03:43:26 33° 358° (N) 03:46:11 437.305
KKS-1 05 Sep 03:42:45 03:46:45 32° 263° (W) 03:50:45 437.445
ITAMSAT 1 05 Sep 03:44:22 03:49:23 51° 287° (WNW) 03:54:24 435.822/435.867
Gurwin Techsat 1B 05 Sep 03:54:45 03:59:30 33° 290° (WNW) 04:04:11 435.225
AO-7 05 Sep 03:55:50 04:03:18 38° 98° (E) 04:10:53 29.400- 29.500
O/OREOS (USA 219) 05 Sep 04:07:10 04:11:47 73° 70° (ENE) 04:16:20 437.305
JAS-2 05 Sep 04:16:38 04:23:09 53° 289° (WNW) 04:28:50 435.910
PHONESAT 2.4 05 Sep 04:18:02 04:21:27 78° 341° (NNW) 04:24:53 2401.200-2431.200
MOZHAYETS 4 05 Sep 04:29:13 04:33:50 78° 259° (W) 04:38:26
HORYU 2 05 Sep 04:48:10 04:52:38 84° 284° (WNW) 04:57:03 437.375
Cosmos 2499 05 Sep 04:57:31 05:05:37 44° 285° (WNW) 05:13:56 435.465 / 435.565
CUBESAT XI-V 05 Sep 05:01:09 05:04:10 18° 69° (ENE) 05:07:21 437.345
VERMONT LUNAR 05 Sep 05:17:11 05:20:06 52° 15° (NNE) 05:23:01 437.305
ISS 05 Sep 05:39:51 05:41:25 13° 129° (SE) 05:43:05 145.825
AO-7 05 Sep 05:48:27 05:56:12 45° 295° (WNW) 06:03:50 29.400- 29.500
PHONESAT 2.4 05 Sep 05:56:21 05:59:35 38° 357° (N) 06:02:48 2401.200-2431.200
Cubesat XI-IV 05 Sep 06:01:27 06:05:16 20° 93° (E) 06:09:15 437.490
PRISM 05 Sep 06:31:31 06:34:54 26° 71° (ENE) 06:38:21 437.425
CUBESAT XI-V 05 Sep 06:37:04 06:41:21 38° 263° (W) 06:45:38 437.345
CUTE-I 05 Sep 06:43:51 06:49:03 54° 100° (E) 06:54:17 437.470
STRAND 1 05 Sep 06:47:13 06:52:15 65° 75° (ENE) 06:57:19 437.568
VERMONT LUNAR 05 Sep 06:53:45 06:56:24 30° 210° (SSW) 06:59:03 437.305
YUBILEINY 05 Sep 07:04:33 07:12:28 37° 73° (ENE) 07:20:28 435.215
AIST 1 05 Sep 07:12:59 07:17:00 45° 93° (E) 07:21:05
ISS 05 Sep 07:14:22 07:17:32 48° 322° (NW) 07:20:43 145.825
BRITE-PL 05 Sep 07:20:28 07:25:03 26° 93° (E) 07:29:47 437.365/2234.400
GOMX 1 05 Sep 07:25:11 07:28:19 16° 89° (E) 07:31:43 467.674
PHONESAT 2.4 05 Sep 07:34:25 07:37:46 56° 14° (NNE) 07:41:07 2401.200-2431.200
HO-68 05 Sep 07:39:17 07:41:26 12° 87° (E) 07:44:12 435.675
Cubesat XI-IV 05 Sep 07:40:33 07:45:36 43° 288° (WNW) 07:50:36 437.490
SO-50 05 Sep 07:48:24 07:51:41 18° 45° (NE) 07:55:03 436.795
Cosmos 2491 05 Sep 07:50:50 07:58:36 40° 88° (E) 08:06:33 435.465 / 435.565
PRISM 05 Sep 08:07:12 08:10:20 20° 266° (W) 08:13:21 437.425
CUTE-I 05 Sep 08:25:12 08:28:45 18° 294° (WNW) 08:32:06 437.470
STRAND 1 05 Sep 08:29:49 08:32:00 12° 271° (W) 08:33:51 437.568
PCSat 05 Sep 08:47:08 08:50:02 15° 46° (NE) 08:53:09 145.827
DOVE 4 05 Sep 08:50:23 08:55:40 67° 100° (E) 09:00:49 437.250
AIST 1 05 Sep 08:53:11 08:55:00 12° 290° (WNW) 08:56:35
CUSAT 1 05 Sep 08:55:41 09:00:46 18° 64° (ENE) 09:06:17 437.405
BRITE-PL 05 Sep 08:58:23 09:03:38 40° 288° (WNW) 09:08:52 437.365/2234.400
CINEMA 3 05 Sep 08:59:24 09:03:49 33° 95° (E) 09:08:09 145.822/145.860
YUBILEINY 05 Sep 09:01:12 09:09:26 44° 271° (W) 09:17:28 435.215
GOMX 1 05 Sep 09:01:26 09:06:53 60° 285° (WNW) 09:12:12 467.674
CUTE 1.7 + AOD 2 05 Sep 09:11:01 09:15:14 74° 100° (E) 09:19:25 437.475
PHONESAT 2.4 05 Sep 09:12:26 09:15:34 35° 210° (SSW) 09:18:42 2401.200-2431.200
Cosmos 2504 05 Sep 09:12:55 09:20:03 32° 71° (ENE) 09:26:57 435.465 / 435.565
TIGRISAT 05 Sep 09:16:11 09:18:22 14° 66° (ENE) 09:20:48 435.000
HO-68 05 Sep 09:23:04 09:30:19 84° 105° (ESE) 09:37:31 435.675
CANX-2 05 Sep 09:25:54 09:30:05 63° 285° (WNW) 09:34:14 2200.000
SO-50 05 Sep 09:27:50 09:32:41 59° 243° (WSW) 09:37:22 436.795
ZACube-1 05 Sep 09:31:16 09:33:58 16° 91° (E) 09:36:48 437.345
ANTELSAT 05 Sep 09:34:00 09:37:32 22° 69° (ENE) 09:41:12 437.575/2403.000
FUNcube-1 05 Sep 09:34:11 09:36:58 17° 91° (E) 09:39:53 145.935
SEEDS 05 Sep 09:38:09 09:42:18 65° 284° (WNW) 09:46:25 437.485
AUBIESAT-1 05 Sep 09:41:25 09:45:03 23° 66° (ENE) 09:48:44 437.475
DELFI C3 05 Sep 09:45:24 09:48:30 22° 94° (E) 09:51:40 145.870
Cosmos 2491 05 Sep 09:47:24 09:55:29 40° 286° (WNW) 10:03:27 435.465 / 435.565
UWE-3 05 Sep 09:48:39 09:52:48 36° 97° (E) 09:56:51 435.000/436.395/437.385
M-CUBED/EXP-1 PRIME 05 Sep 09:51:06 09:55:24 35° 68° (ENE) 09:59:39 437.505
COMPASS 1 05 Sep 09:51:30 09:55:35 58° 285° (WNW) 09:59:38 437.405
CUBEBUG 2 05 Sep 09:52:17 09:56:47 53° 99° (E) 10:01:09 437.445
AAUSAT CUBESAT 2 05 Sep 09:57:07 10:01:11 60° 285° (WNW) 10:05:14 437.432
DANDE 05 Sep 09:59:09 10:06:31 38° 73° (ENE) 10:14:20 436.750
Oscar 11 05 Sep 10:11:34 10:15:54 80° 101° (E) 10:20:11 145.826/435.025
BUGSAT 1 05 Sep 10:17:29 10:18:33 11° 66° (ENE) 10:19:52 437.445
UNISAT 6 05 Sep 10:23:32 10:28:13 76° 78° (ENE) 10:32:57 437.425
PCSat 05 Sep 10:28:45 10:34:11 80° 246° (WSW) 10:39:36 145.827
DOVE 4 05 Sep 10:29:57 10:32:51 14° 295° (WNW) 10:35:28 437.250
DUCHIFAT 1 05 Sep 10:30:01 10:33:34 27° 71° (ENE) 10:37:12 145.980
POLYITAN 1 05 Sep 10:33:34 10:37:21 32° 72° (ENE) 10:41:12 437.675
POPSAT HIP 1 05 Sep 10:34:06 10:37:50 31° 72° (ENE) 10:41:40 437.405
CUSAT 1 05 Sep 10:36:13 10:44:27 89° 86° (E) 10:52:27 437.405
CINEMA 3 05 Sep 10:36:54 10:40:50 23° 291° (WNW) 10:44:32 145.822/145.860
NANOSAT C BR1 05 Sep 10:48:55 10:52:58 46° 74° (ENE) 10:57:05 145.865
TIGRISAT 05 Sep 10:50:03 10:54:40 57° 260° (W) 10:59:19 435.000
QB50P2 05 Sep 10:51:59 10:56:08 54° 75° (ENE) 11:00:21 145.880/145.840
AISAT 05 Sep 10:56:09 10:59:23 20° 94° (E) 11:02:43 437.250
JUGNU 05 Sep 10:59:53 11:02:41 14° 171° (S) 11:05:33 437.505
ESTCUBE 1 05 Sep 11:02:21 11:05:10 17° 92° (E) 11:08:10 437.505/2401.250
QB50P1 05 Sep 11:04:38 11:08:52 75° 76° (ENE) 11:13:09 145.935-145.965
Cosmos 2504 05 Sep 11:04:40 11:12:34 48° 271° (W) 11:19:52 435.465 / 435.565
ZACube-1 05 Sep 11:06:25 11:10:31 37° 287° (WNW) 11:14:29 437.345
HUMSAT D 05 Sep 11:08:11 11:12:24 84° 102° (ESE) 11:16:33 437.325/437.525
FUNcube-1 05 Sep 11:09:25 11:13:28 35° 287° (WNW) 11:17:22 145.935
ANTELSAT 05 Sep 11:09:51 11:14:07 33° 264° (W) 11:18:22 437.575/2403.000
HO-68 05 Sep 11:12:44 11:17:18 17° 301° (WNW) 11:21:29 435.675
AUBIESAT-1 05 Sep 11:15:15 11:19:34 34° 258° (WSW) 11:23:46 437.475
DELFI C3 05 Sep 11:20:19 11:23:30 23° 289° (WNW) 11:26:34 145.870
50 SAT 05 Sep 11:21:27 11:25:08 44° 98° (E) 11:28:47 437.505
VELOX 1 05 Sep 11:22:06 11:26:14 37° 98° (E) 11:30:24 145.980
UWE-3 05 Sep 11:25:54 11:29:04 18° 292° (WNW) 11:32:01 435.000/436.395/437.385
M-CUBED/EXP-1 PRIME 05 Sep 11:26:20 11:30:10 23° 261° (W) 11:33:52 437.505
CUBEBUG 2 05 Sep 11:30:41 11:33:01 13° 294° (WNW) 11:35:05 437.445
DANDE 05 Sep 11:42:01 11:49:47 48° 268° (W) 11:57:43 436.750
DX 1 05 Sep 11:48:20 11:52:42 65° 285° (WNW) 11:57:03 434.975-435.025
BUGSAT 1 05 Sep 11:49:36 11:53:34 53° 260° (W) 11:57:38 437.445
SPROUT 05 Sep 11:52:27 11:54:41 14° 91° (E) 11:57:08 437.525
UKube-1 05 Sep 11:52:39 11:56:59 65° 285° (WNW) 12:01:15 .
GONETS M04 05 Sep 11:54:30 11:59:19 16° 63° (ENE) 12:04:44
DUCHIFAT 1 05 Sep 12:06:03 12:09:22 21° 266° (W) 12:12:36 145.980
ISS 05 Sep 12:09:33 12:10:09 10° 21° (NNE) 12:10:49 145.825
POLYITAN 1 05 Sep 12:10:17 12:13:20 18° 267° (W) 12:16:16 437.675
POPSAT HIP 1 05 Sep 12:10:44 12:13:48 19° 267° (W) 12:16:44 437.405
Oscar 19 05 Sep 12:11:53 12:15:07 18° 66° (ENE) 12:18:34 437.125/150
CUBEBUG 1 05 Sep 12:15:47 12:20:14 84° 286° (WNW) 12:24:41 437.445
SRMSAT 05 Sep 12:20:29 12:22:26 12° 169° (S) 12:24:28 437.500
CUSAT 1 05 Sep 12:20:59 12:26:09 18° 276° (W) 12:30:48 437.405
NANOSAT C BR1 05 Sep 12:27:13 12:29:06 12° 270° (W) 12:30:47 145.865
QB50P2 05 Sep 12:31:20 12:32:26 11° 271° (W) 12:33:15 145.880/145.840
AISAT 05 Sep 12:31:59 12:36:01 33° 288° (WNW) 12:40:00 437.250
BEESAT 3 05 Sep 12:33:42 12:36:15 17° 111° (ESE) 12:38:58 437.485
TISAT 1 05 Sep 12:34:38 12:38:03 24° 95° (E) 12:41:32 437.305
ESTCUBE 1 05 Sep 12:38:01 12:42:13 38° 287° (WNW) 12:46:23 437.505/2401.250
JUGNU 05 Sep 12:47:28 12:50:57 16° 182° (S) 12:54:26 437.505
BEESAT 2 05 Sep 12:53:13 12:56:14 21° 112° (ESE) 12:59:22 435.950
50 SAT 05 Sep 12:58:03 12:59:17 11° 292° (WNW) 13:00:17 437.505
VELOX 1 05 Sep 12:59:26 13:02:32 18° 292° (WNW) 13:05:29 145.980
ITAMSAT 1 05 Sep 13:21:54 13:25:32 20° 67° (ENE) 13:29:20 435.822/435.867
SPROUT 05 Sep 13:26:54 13:31:01 42° 287° (WNW) 13:35:05 437.525
Gurwin Techsat 1B 05 Sep 13:33:33 13:38:13 33° 70° (ENE) 13:42:57 435.225
ISS 05 Sep 13:43:59 13:47:11 55° 38° (NE) 13:50:22 145.825
ITUPSAT 1 05 Sep 13:45:07 13:48:49 23° 94° (E) 13:52:38 437.325
GONETS M04 05 Sep 13:48:46 13:57:38 89° 81° (E) 14:06:30
Oscar 19 05 Sep 13:49:04 13:54:06 52° 260° (W) 13:59:10 437.125/150
AIST 2 05 Sep 14:05:25 14:08:49 24° 112° (ESE) 14:12:19 435.215
SRMSAT 05 Sep 14:07:24 14:10:50 16° 179° (S) 14:14:16 437.500
BEESAT 3 05 Sep 14:10:09 14:13:56 36° 305° (NW) 14:17:42 437.485
TISAT 1 05 Sep 14:10:13 14:13:46 25° 289° (WNW) 14:17:12 437.305
BEESAT 05 Sep 14:14:11 14:18:47 49° 100° (E) 14:23:23 436.000
JAS-2 05 Sep 14:22:47 14:30:15 55° 72° (ENE) 14:37:51 435.910
RS-15 05 Sep 14:29:31 14:39:28 46° 110° (ESE) 14:49:56 29.354- 29.394
BEESAT 2 05 Sep 14:30:27 14:34:06 30° 307° (NW) 14:37:45 435.950
JUGNU 05 Sep 14:37:06 14:39:13 12° 191° (S) 14:41:14 437.505
SWISSCUBE 05 Sep 14:40:50 14:45:37 78° 283° (WNW) 14:50:22 437.505
AO-7 05 Sep 14:51:54 14:59:28 42° 65° (ENE) 15:07:09 29.400- 29.500
Cosmos 2499 05 Sep 14:52:08 15:00:33 63° 79° (E) 15:08:19 435.465 / 435.565
ITAMSAT 1 05 Sep 14:59:51 15:04:46 43° 261° (W) 15:09:41 435.822/435.867
STARS 05 Sep 15:05:19 15:07:37 14° 91° (E) 15:10:07 437.465
Gurwin Techsat 1B 05 Sep 15:13:44 15:18:13 27° 265° (W) 15:22:38 435.225
ISS 05 Sep 15:22:03 15:23:17 12° 232° (SW) 15:24:23 145.825
ITUPSAT 1 05 Sep 15:22:32 15:26:45 32° 289° (WNW) 15:30:55 437.325
KKS-1 05 Sep 15:35:53 15:40:19 58° 100° (E) 15:44:44 437.445
HORYU 2 05 Sep 15:43:25 15:47:52 63° 75° (ENE) 15:52:19 437.375
AIST 2 05 Sep 15:43:36 15:47:18 28° 308° (NW) 15:50:57 435.215
GONETS M04 05 Sep 15:48:29 15:53:28 16° 279° (W) 15:57:50
BEESAT 05 Sep 15:53:20 15:56:16 16° 293° (WNW) 15:59:00 436.000
SRMSAT 05 Sep 15:56:27 15:59:15 13° 188° (S) 16:02:00 437.500
JAS-2 05 Sep 16:08:56 16:15:34 29° 268° (W) 16:22:06 435.910
MOZHAYETS 4 05 Sep 16:27:23 16:31:21 29° 96° (E) 16:35:21
STARS 05 Sep 16:40:05 16:44:20 44° 287° (WNW) 16:48:31 437.465
O/OREOS (USA 219) 05 Sep 16:40:48 16:42:06 11° 99° (E) 16:43:41 437.305
RS-15 05 Sep 16:41:19 16:51:51 49° 311° (NW) 17:02:43 29.354- 29.394
AO-7 05 Sep 16:44:29 16:52:16 41° 261° (W) 16:59:57 29.400- 29.500
Cosmos 2499 05 Sep 16:46:40 16:53:00 23° 277° (W) 16:58:41 435.465 / 435.565
KKS-1 05 Sep 17:14:38 17:16:30 12° 294° (WNW) 17:18:08 437.445
Cubesat XI-IV 05 Sep 17:20:52 17:25:11 27° 69° (ENE) 17:29:38 437.490
CUTE-I 05 Sep 18:03:02 18:08:18 68° 75° (ENE) 18:13:35 437.470
MOZHAYETS 4 05 Sep 18:04:50 18:08:26 23° 290° (WNW) 18:11:55
Cosmos 2491 05 Sep 18:05:40 18:10:27 16° 63° (ENE) 18:15:51 435.465 / 435.565
O/OREOS (USA 219) 05 Sep 18:16:36 18:21:04 56° 293° (WNW) 18:25:34 437.305
BRITE-PL 05 Sep 18:29:54 18:32:52 18° 67° (ENE) 18:36:09 437.365/2234.400
GOMX 1 05 Sep 18:32:39 18:33:51 11° 63° (ENE) 18:35:22 467.674
CUBESAT XI-V 05 Sep 18:35:51 18:40:30 63° 101° (E) 18:45:08 437.345
AIST 1 05 Sep 18:59:53 19:04:12 65° 265° (W) 19:08:31
Cubesat XI-IV 05 Sep 19:00:22 19:05:11 34° 263° (W) 19:09:57 437.490
STRAND 1 05 Sep 19:00:56 19:05:11 27° 95° (E) 19:09:33 437.568
RS-15 05 Sep 19:01:19 19:08:14 17° 342° (NNW) 19:15:01 29.354- 29.394
CUTE-I 05 Sep 19:46:35 19:48:58 12° 271° (W) 19:50:59 437.470
HO-68 05 Sep 19:48:32 19:55:18 48° 69° (ENE) 20:02:09 435.675
PRISM 05 Sep 19:50:37 19:54:43 63° 101° (E) 19:58:48 437.425
DOVE 4 05 Sep 19:53:02 19:57:31 47° 73° (ENE) 20:02:21 437.250
CINEMA 3 05 Sep 19:58:33 20:02:16 24° 69° (ENE) 20:06:13 145.822/145.860
Cosmos 2491 05 Sep 19:59:58 20:08:47 90° 84° (E) 20:17:36 435.465 / 435.565
CUTE 1.7 + AOD 2 05 Sep 20:01:11 20:05:05 36° 73° (ENE) 20:09:03 437.475
YUBILEINY 05 Sep 20:01:47 20:09:56 46° 89° (E) 20:18:15 435.215
GOMX 1 05 Sep 20:06:43 20:11:17 72° 259° (W) 20:16:16 467.674
BRITE-PL 05 Sep 20:06:53 20:11:04 39° 264° (W) 20:15:33 437.365/2234.400
CUBESAT XI-V 05 Sep 20:15:34 20:17:27 12° 294° (WNW) 20:19:06 437.345
CANX-2 05 Sep 20:15:44 20:19:58 63° 76° (ENE) 20:24:13 2200.000
ZACube-1 05 Sep 20:26:22 20:27:25 11° 66° (ENE) 20:28:46 437.345
SEEDS 05 Sep 20:27:06 20:31:16 59° 76° (ENE) 20:35:26 437.485
FUNcube-1 05 Sep 20:28:53 20:30:09 11° 66° (ENE) 20:31:42 145.935
DELFI C3 05 Sep 20:32:28 20:32:58 10° 67° (ENE) 20:33:43 145.870
COMPASS 1 05 Sep 20:39:32 20:43:41 64° 76° (ENE) 20:47:51 437.405
STRAND 1 05 Sep 20:39:55 20:44:24 31° 290° (WNW) 20:48:48 437.568
UWE-3 05 Sep 20:43:14 20:46:50 23° 70° (ENE) 20:50:35 435.000/436.395/437.385
AAUSAT CUBESAT 2 05 Sep 20:44:44 20:48:51 61° 76° (ENE) 20:52:58 437.432
CUBEBUG 2 05 Sep 20:47:33 20:51:43 34° 72° (ENE) 20:56:01 437.445
Oscar 11 05 Sep 21:03:36 21:07:41 42° 74° (ENE) 21:11:49 145.826/435.025
RS-15 05 Sep 21:20:32 21:27:16 17° 18° (NNE) 21:34:31 29.354- 29.394
DOVE 4 05 Sep 21:32:42 21:35:40 16° 271° (W) 21:38:30 437.250
CINEMA 3 05 Sep 21:34:58 21:39:17 33° 265° (W) 21:43:42 145.822/145.860
HO-68 05 Sep 21:37:09 21:43:16 29° 265° (W) 21:49:15 435.675
CUTE 1.7 + AOD 2 05 Sep 21:38:27 21:41:10 16° 268° (W) 21:43:42 437.475
Cosmos 2504 05 Sep 21:39:59 21:46:13 25° 84° (E) 21:52:57 435.465 / 435.565
AISAT 05 Sep 21:52:35 21:54:38 14° 67° (ENE) 21:56:55 437.250
HUMSAT D 05 Sep 21:56:55 22:00:58 41° 74° (ENE) 22:05:03 437.325/437.525
ZACube-1 05 Sep 21:58:42 22:03:15 69° 260° (W) 22:07:51 437.345
YUBILEINY 05 Sep 21:59:03 22:06:58 35° 288° (WNW) 22:14:47 435.215
Cosmos 2491 05 Sep 21:59:46 22:04:37 15° 279° (W) 22:08:51 435.465 / 435.565
ESTCUBE 1 05 Sep 22:00:59 22:02:33 12° 66° (ENE) 22:04:22 437.505/2401.250
FUNcube-1 05 Sep 22:01:25 22:05:57 66° 259° (W) 22:10:33 145.935
50 SAT 05 Sep 22:02:59 22:05:37 18° 70° (ENE) 22:08:22 437.505
DELFI C3 05 Sep 22:03:38 22:07:37 54° 260° (W) 22:11:34 145.870
VELOX 1 05 Sep 22:17:29 22:21:00 24° 70° (ENE) 22:24:36 145.980
UWE-3 05 Sep 22:19:05 22:23:12 31° 264° (W) 22:27:20 435.000/436.395/437.385
UNISAT 6 05 Sep 22:19:26 22:22:33 19° 92° (E) 22:25:46 437.425
CUBEBUG 2 05 Sep 22:24:49 22:28:28 22° 267° (W) 22:32:03 437.445
BEESAT 3 05 Sep 22:30:36 22:34:34 54° 58° (ENE) 22:38:26 437.485
DX 1 05 Sep 22:40:59 22:45:19 76° 75° (ENE) 22:49:41 434.975-435.025
Oscar 11 05 Sep 22:41:42 22:44:06 14° 269° (W) 22:46:19 145.826/435.025
QB50P2 05 Sep 22:42:29 22:43:28 11° 89° (E) 22:44:45 145.880/145.840
UKube-1 05 Sep 22:44:28 22:48:45 74° 76° (ENE) 22:53:04 .
TIGRISAT 05 Sep 22:44:52 22:48:59 35° 97° (E) 22:53:01 435.000
BEESAT 2 05 Sep 22:51:16 22:55:18 69° 59° (ENE) 22:59:16 435.950
QB50P1 05 Sep 22:53:46 22:56:10 15° 92° (E) 22:58:44 145.935-145.965
AUBIESAT-1 05 Sep 22:59:26 23:01:57 18° 98° (E) 23:04:27 437.475
ANTELSAT 05 Sep 23:04:11 23:08:40 64° 101° (E) 23:13:00 437.575/2403.000
DANDE 05 Sep 23:09:05 23:12:18 27° 87° (E) 23:16:28 436.750
CUBEBUG 1 05 Sep 23:09:07 23:13:20 56° 75° (ENE) 23:17:36 437.445
M-CUBED/EXP-1 PRIME 05 Sep 23:09:55 23:13:13 31° 101° (E) 23:16:21 437.505
TISAT 1 05 Sep 23:25:33 23:27:30 13° 67° (ENE) 23:29:39 437.305
PCSat 05 Sep 23:26:15 23:29:53 19° 107° (ESE) 23:33:44 145.827
AISAT 05 Sep 23:26:32 23:30:49 50° 260° (W) 23:35:08 437.250
Cosmos 2504 05 Sep 23:29:43 23:37:49 61° 281° (W) 23:46:20 435.465 / 435.565
RS-15 05 Sep 23:32:47 23:43:59 47° 48° (NE) 23:55:41 29.354- 29.394
HUMSAT D 05 Sep 23:34:22 23:36:55 15° 269° (W) 23:39:15 437.325/437.525
ESTCUBE 1 05 Sep 23:34:34 23:38:58 58° 260° (W) 23:43:24 437.505/2401.250
BUGSAT 1 05 Sep 23:34:36 23:38:11 26° 95° (E) 23:41:48 437.445
50 SAT 05 Sep 23:36:28 23:39:56 28° 264° (W) 23:43:21 437.505
SO-50 05 Sep 23:39:02 23:43:47 86° 118° (ESE) 23:48:42 436.795
CUSAT 1 05 Sep 23:40:07 23:44:18 70° 282° (WNW) 23:49:59 437.405
DUCHIFAT 1 05 Sep 23:52:04 23:56:21 73° 101° (E) 00:00:36 145.980
VELOX 1 05 Sep 23:53:45 23:57:28 26° 265° (W) 00:01:07 145.980
UNISAT 6 05 Sep 23:55:24 23:59:28 33° 288° (WNW) 00:03:22 437.425
POLYITAN 1 05 Sep 23:56:42 00:01:01 89° 97° (E) 00:05:18 437.675
POPSAT HIP 1 05 Sep 23:56:55 00:01:15 87° 98° (E) 00:05:31 437.405
AIST 2 06 Sep 00:07:00 00:11:11 87° 56° (NE) 00:15:17 435.215
BEESAT 3 06 Sep 00:11:26 00:12:02 10° 251° (WSW) 00:12:22 437.485
NANOSAT C BR1 06 Sep 00:11:49 00:16:04 62° 285° (WNW) 00:20:16 145.865
QB50P2 06 Sep 00:15:33 00:19:45 53° 285° (WNW) 00:23:54 145.880/145.840
SPROUT 06 Sep 00:17:47 00:22:05 79° 258° (WSW) 00:26:25 437.525
TIGRISAT 06 Sep 00:22:20 00:25:29 18° 292° (WNW) 00:28:25 435.000
QB50P1 06 Sep 00:28:13 00:32:14 39° 287° (WNW) 00:36:11 145.935-145.965
AUBIESAT-1 06 Sep 00:33:45 00:36:41 22° 295° (WNW) 00:39:24 437.475
ANTELSAT 06 Sep 00:43:37 00:44:54 11° 295° (WNW) 00:45:55 437.575/2403.000
M-CUBED/EXP-1 PRIME 06 Sep 00:45:41 00:47:45 14° 298° (WNW) 00:49:36 437.505
CUBEBUG 1 06 Sep 00:49:11 00:50:08 10° 271° (W) 00:50:46 437.445
ITUPSAT 1 06 Sep 00:49:49 00:53:15 21° 68° (ENE) 00:56:49 437.325
DANDE 06 Sep 00:52:37 00:55:37 19° 296° (WNW) 00:59:05 436.750
GONETS M04 06 Sep 00:53:09 00:58:41 20° 82° (E) 01:04:43
VERMONT LUNAR 06 Sep 00:56:35 00:59:34 61° 156° (SSE) 01:02:32 437.305
TISAT 1 06 Sep 00:58:50 01:02:53 45° 261° (W) 01:06:58 437.305
PCSat 06 Sep 01:07:43 01:12:57 50° 301° (WNW) 01:18:13 145.827
BUGSAT 1 06 Sep 01:10:08 01:13:32 23° 290° (WNW) 01:16:49 437.445
BEESAT 06 Sep 01:18:02 01:22:29 41° 72° (ENE) 01:26:59 436.000
SO-50 06 Sep 01:22:39 01:25:05 13° 319° (NW) 01:27:20 436.795
SWISSCUBE 06 Sep 01:44:33 01:49:18 89° 73° (ENE) 01:54:05 437.505
RS-15 06 Sep 01:45:19 01:56:48 53° 249° (WSW) 02:08:24 29.354- 29.394
Gurwin Techsat 1B 06 Sep 01:53:26 01:56:29 16° 91° (E) 01:59:47 435.225
PHONESAT 2.4 06 Sep 01:55:49 01:57:57 16° 145° (SE) 02:00:10 2401.200-2431.200
Oscar 19 06 Sep 02:03:10 02:08:21 70° 101° (E) 02:13:31 437.125/150
ITUPSAT 1 06 Sep 02:26:31 02:30:55 36° 262° (W) 02:35:18 437.325
KKS-1 06 Sep 02:31:26 02:35:32 38° 72° (ENE) 02:39:41 437.445
VERMONT LUNAR 06 Sep 02:33:11 02:36:02 38° 351° (N) 02:38:52 437.305
